User: anonymous   Login
Location: Gand�
(15.0971°N, 12.6564°W)
Time: 11:42:46
(UTC+00:00)
Language:

Cosmos 2263 Rocket - Orbit

View from above orbital plane
View from above orbital plane
View from above satellite
View from above satellite

Ground track
Ground track

The orbit data is extracted from the following two-line orbital elements,

1 22803U 93059B   20304.88629447 +.00000183 +00000-0 +11508-3 0  9998
2 22803 070.9901 173.8549 0019115 305.4508 054.4830 14.16829972402483
Epoch (UTC): 30 October 2020 21:16:15
Eccentricity: 0.0019115
inclination: 70.9901°
perigee height: 822 km
apogee height: 850 km
right ascension of ascending node: 173.8549°
argument of perigee: 305.4508°
revolutions per day: 14.16829972
mean anomaly at epoch: 54.4830°
orbit number at epoch: 40248

The dashed part of the orbit path shows where the satellite is in the earth's shadow,  

DLR